Location: Vancouver
(49.2500°N, 123.1330°W)
Time: 09:40:53
(UTC-07:00)

Cosmos 676 Rocket - Visible Passes

Search period start: 30 October 2014 00:00
Search period end: 08 November 2014 23:00
Orbit: 755 x 786 km, 74.0° (Epoch: 29 October)

Date Brightness Start Highest point End Pass type
(mag) Time Alt. Az. Time Alt. Az. Time Alt. Az.
30 Oct 5.1 19:43:03 10° N 19:47:27 27° NE 19:47:27 27° NE visible
30 Oct 5.5 21:24:48 10° NNW 21:27:47 33° NW 21:27:47 33° NW visible
31 Oct 5.4 19:07:09 10° N 19:10:54 19° NE 19:12:10 18° ENE visible
31 Oct 4.5 20:48:26 10° NNW 20:52:30 53° NNW 20:52:30 53° NNW visible
31 Oct 7.0 22:32:20 10° WNW 22:32:51 11° WNW 22:32:51 11° WNW visible
01 Nov 5.8 18:31:31 10° N 18:34:10 14° NE 18:36:48 10° ENE visible
01 Nov 4.1 20:12:11 10° NNW 20:17:18 59° NE 20:17:18 59° NE visible
01 Nov 6.3 21:55:04 10° NW 21:57:39 20° WNW 21:57:39 20° WNW visible
02 Nov 4.5 18:36:02 10° NNW 18:41:03 39° ENE 18:42:13 35° E visible
02 Nov 5.4 20:18:18 10° NW 20:22:34 35° W 20:22:34 35° W visible
03 Nov 5.0 17:59:59 10° N 18:04:32 27° NE 18:07:16 18° E visible
03 Nov 4.6 19:41:47 10° NNW 19:47:00 56° WSW 19:47:38 53° SW visible
04 Nov 5.4 17:24:05 10° N 17:27:54 19° NE 17:31:42 10° E visible
04 Nov 4.0 19:05:24 10° NNW 19:10:47 87° WSW 19:12:54 38° SSE visible
04 Nov 6.7 20:49:25 10° WNW 20:52:04 14° W 20:53:18 13° WSW visible
05 Nov 4.0 18:29:09 10° NNW 18:34:27 61° ENE 18:38:30 17° SE visible
05 Nov 6.2 20:12:05 10° NW 20:16:07 22° W 20:18:55 15° SW visible
06 Nov 4.5 17:52:59 10° NNW 17:58:02 41° ENE 18:03:03 10° SE visible
06 Nov 5.5 19:35:17 10° NW 19:40:05 35° WSW 19:44:52 10° SSW visible
07 Nov 4.9 17:16:56 10° N 17:21:31 28° NE 17:26:04 10° ESE visible
07 Nov 4.7 18:58:45 10° NNW 19:03:58 55° WSW 19:09:08 10° S visible
08 Nov 4.1 18:22:22 10° NNW 18:27:44 85° WSW 18:33:04 10° SSE visible
08 Nov 7.0 20:06:30 10° WNW 20:09:00 13° W 20:11:29 10° WSW visible
